Track USA 247 (NROL-39) now! 10-day predictions USA 247 (NROL-39) is classified as:
1 39462U 13072A 24324.71581621 0.00000000 00000-0 00000-0 0 06 2 39462 123.0000 42.6070 0003930 130.9975 229.0025 13.41457138 07